| time (UTC) | temp F | wind direction | speed MPH | gust MPH | rain 1hr in | rain 24hr in | rain mn in | humidity % | barometer mb |
| 20260505031816 | 73 | 127 | 5.0 | 12.0 | 0.00 | 0.00 | 0.00 | 32 | 1012.2 |
| 20260505031245 | 73 | 150 | 3.0 | 10.0 | 0.00 | 0.00 | 0.00 | 32 | 1012.1 |
| 20260505030815 | 73 | 136 | 2.0 | 11.0 | 0.00 | 0.00 | 0.00 | 31 | 1012.0 |
| 20260505030315 | 73 | 155 | 4.0 | 11.0 | 0.00 | 0.00 | 0.00 | 31 | 1012.0 |
| 20260505025815 | 73 | 214 | 8.0 | 12.0 | 0.00 | 0.00 | 0.00 | 32 | 1012.0 |
| 20260505025315 | 73 | 219 | 6.0 | 12.0 | 0.00 | 0.00 | 0.00 | 32 | 1011.6 |
| 20260505024815 | 73 | 167 | 6.0 | 13.0 | 0.00 | 0.00 | 0.00 | 32 | 1011.5 |
| 20260505024315 | 73 | 158 | 7.0 | 13.0 | 0.00 | 0.00 | 0.00 | 32 | 1011.7 |
| 20260505022814 | 74 | 140 | 1.0 | 4.0 | 0.00 | 0.00 | 0.00 | 38 | 1011.7 |
| 20260505022314 | 74 | 221 | 0.0 | 2.0 | 0.00 | 0.00 | 0.00 | 39 | 1011.7 |
| 20260505021814 | 74 | 279 | 1.0 | 2.0 | 0.00 | 0.00 | 0.00 | 39 | 1011.5 |
| 20260505021314 | 74 | 201 | 0.0 | 2.0 | 0.00 | 0.00 | 0.00 | 38 | 1011.2 |
| 20260505020814 | 74 | 211 | 0.0 | 5.0 | 0.00 | 0.00 | 0.00 | 38 | 1011.1 |
| 20260505020313 | 74 | 224 | 2.0 | 5.0 | 0.00 | 0.00 | 0.00 | 38 | 1011.0 |
| 20260505015814 | 74 | 205 | 1.0 | 4.0 | 0.00 | 0.00 | 0.00 | 38 | 1011.0 |
| 20260505015313 | 74 | 176 | 1.0 | 3.0 | 0.00 | 0.00 | 0.00 | 38 | 1010.9 |
| 20260505014813 | 74 | 222 | 1.0 | 2.0 | 0.00 | 0.00 | 0.00 | 38 | 1010.8 |
| 20260505014313 | 75 | 217 | 0.0 | 2.0 | 0.00 | 0.00 | 0.00 | 38 | 1010.8 |
| 20260505013813 | 75 | 245 | 0.0 | 2.0 | 0.00 | 0.00 | 0.00 | 38 | 1010.7 |
| 20260505013313 | 75 | 278 | 0.0 | 1.0 | 0.00 | 0.00 | 0.00 | 37 | 1011.1 |
| 20260505012812 | 75 | 274 | 0.0 | 3.0 | 0.00 | 0.00 | 0.00 | 37 | 1010.9 |
| 20260505012313 | 75 | 281 | 0.0 | 4.0 | 0.00 | 0.00 | 0.00 | 37 | 1010.8 |
| 20260505011813 | 75 | 198 | 3.0 | 4.0 | 0.00 | 0.00 | 0.00 | 37 | 1010.8 |
| 20260505010812 | 76 | 278 | 2.0 | 3.0 | 0.00 | 0.00 | 0.00 | 36 | 1011.1 |
| 20260505005811 | 76 | 286 | 0.0 | 2.0 | 0.00 | 0.00 | 0.00 | 36 | 1011.0 |
| 20260505005311 | 76 | 271 | 1.0 | 2.0 | 0.00 | 0.00 | 0.00 | 36 | 1010.9 |
| 20260505004311 | 76 | 317 | 1.0 | 7.0 | 0.00 | 0.00 | 0.00 | 36 | 1010.9 |
| 20260505003311 | 76 | 307 | 1.0 | 5.0 | 0.00 | 0.00 | 0.00 | 36 | 1011.1 |
| 20260505002811 | 76 | 287 | 1.0 | 5.0 | 0.00 | 0.00 | 0.00 | 36 | 1011.1 |
| 20260505002311 | 76 | 224 | 2.0 | 4.0 | 0.00 | 0.00 | 0.00 | 36 | 1011.1 |
| 20260505001810 | 77 | 274 | 2.0 | 5.0 | 0.00 | 0.00 | 0.00 | 35 | 1011.1 |
| 20260505001310 | 77 | 285 | 1.0 | 5.0 | 0.00 | 0.00 | 0.00 | 35 | 1011.2 |
| 20260505000310 | 77 | 277 | 2.0 | 6.0 | 0.00 | 0.00 | 0.00 | 35 | 1011.4 |
| 20260504235810 | 78 | 288 | 1.0 | 5.0 | 0.00 | 0.00 | 0.00 | 34 | 1011.4 |
| 20260504235310 | 78 | 248 | 1.0 | 7.0 | 0.00 | 0.00 | 0.00 | 33 | 1011.2 |
| 20260504234809 | 77 | 215 | 3.0 | 7.0 | 0.00 | 0.00 | 0.00 | 33 | 1011.3 |
| 20260504234309 | 77 | 278 | 1.0 | 5.0 | 0.00 | 0.00 | 0.00 | 34 | 1011.1 |
| 20260504233809 | 77 | 288 | 1.0 | 5.0 | 0.00 | 0.00 | 0.00 | 34 | 1011.0 |
| 20260504233309 | 78 | 297 | 1.0 | 6.0 | 0.00 | 0.00 | 0.00 | 33 | 1010.9 |
| 20260504232809 | 78 | 237 | 0.0 | 6.0 | 0.00 | 0.00 | 0.00 | 33 | 1010.8 |
| 20260504232309 | 78 | 163 | 0.0 | 4.0 | 0.00 | 0.00 | 0.00 | 33 | 1011.0 |
| 20260504231809 | 78 | 240 | 2.0 | 5.0 | 0.00 | 0.00 | 0.00 | 33 | 1011.1 |
| 20260504231309 | 78 | 238 | 1.0 | 8.0 | 0.00 | 0.00 | 0.00 | 33 | 1011.0 |
| 20260504230809 | 78 | 229 | 5.0 | 8.0 | 0.00 | 0.00 | 0.00 | 33 | 1011.1 |
| 20260504230308 | 78 | 249 | 2.0 | 5.0 | 0.00 | 0.00 | 0.00 | 33 | 1011.1 |
| 20260504225808 | 78 | 278 | 2.0 | 6.0 | 0.00 | 0.00 | 0.00 | 33 | 1011.0 |
| 20260504225308 | 78 | 198 | 4.0 | 6.0 | 0.00 | 0.00 | 0.00 | 33 | 1011.2 |
| 20260504224808 | 78 | 277 | 2.0 | 5.0 | 0.00 | 0.00 | 0.00 | 33 | 1011.3 |
| 20260504224308 | 78 | 202 | 3.0 | 7.0 | 0.00 | 0.00 | 0.00 | 34 | 1011.3 |
| 20260504223807 | 78 | 294 | 2.0 | 7.0 | 0.00 | 0.00 | 0.00 | 34 | 1011.2 |
| 20260504223307 | 78 | 268 | 1.0 | 6.0 | 0.00 | 0.00 | 0.00 | 34 | 1011.2 |
| 20260504222807 | 77 | 217 | 5.0 | 8.0 | 0.00 | 0.00 | 0.00 | 34 | 1011.2 |
| 20260504222307 | 77 | 211 | 4.0 | 8.0 | 0.00 | 0.00 | 0.00 | 34 | 1011.2 |
| 20260504221807 | 78 | 184 | 3.0 | 8.0 | 0.00 | 0.00 | 0.00 | 34 | 1011.2 |
| 20260504221307 | 78 | 218 | 3.0 | 6.0 | 0.00 | 0.00 | 0.00 | 35 | 1011.4 |
| 20260504220806 | 78 | 273 | 1.0 | 6.0 | 0.00 | 0.00 | 0.00 | 35 | 1011.3 |
| 20260504220307 | 78 | 226 | 5.0 | 7.0 | 0.00 | 0.00 | 0.00 | 35 | 1011.5 |
| 20260504215807 | 78 | 248 | 0.0 | 7.0 | 0.00 | 0.00 | 0.00 | 35 | 1011.8 |
| 20260504215306 | 78 | 156 | 4.0 | 7.0 | 0.00 | 0.00 | 0.00 | 35 | 1012.2 |
| 20260504214806 | 78 | 265 | 1.0 | 7.0 | 0.00 | 0.00 | 0.00 | 35 | 1012.3 |
| 20260504213806 | 78 | 278 | 1.0 | 7.0 | 0.00 | 0.00 | 0.00 | 35 | 1012.5 |
| 20260504212806 | 79 | 310 | 3.0 | 6.0 | 0.00 | 0.00 | 0.00 | 34 | 1012.5 |
| 20260504212305 | 79 | 145 | 1.0 | 7.0 | 0.00 | 0.00 | 0.00 | 34 | 1012.6 |
| 20260504211806 | 79 | 280 | 2.0 | 8.0 | 0.00 | 0.00 | 0.00 | 34 | 1012.5 |
| 20260504211305 | 79 | 331 | 1.0 | 8.0 | 0.00 | 0.00 | 0.00 | 34 | 1012.6 |
| 20260504210805 | 80 | 193 | 4.0 | 8.0 | 0.00 | 0.00 | 0.00 | 33 | 1012.5 |
| 20260504210305 | 79 | 222 | 4.0 | 9.0 | 0.00 | 0.00 | 0.00 | 33 | 1012.4 |
| 20260504205304 | 80 | 236 | 4.0 | 7.0 | 0.00 | 0.00 | 0.00 | 33 | 1012.5 |
| 20260504204805 | 80 | 221 | 3.0 | 7.0 | 0.00 | 0.00 | 0.00 | 33 | 1012.4 |
| 20260504203804 | 80 | 218 | 1.0 | 10.0 | 0.00 | 0.00 | 0.00 | 33 | 1012.3 |
| 20260504203304 | 80 | 234 | 10.0 | 10.0 | 0.00 | 0.00 | 0.00 | 33 | 1012.3 |
| 20260504202804 | 80 | 206 | 2.0 | 6.0 | 0.00 | 0.00 | 0.00 | 33 | 1012.5 |
| 20260504202305 | 80 | 207 | 3.0 | 8.0 | 0.00 | 0.00 | 0.00 | 33 | 1012.3 |
| 20260504201803 | 80 | 329 | 3.0 | 8.0 | 0.00 | 0.00 | 0.00 | 32 | 1012.2 |
| 20260504201304 | 80 | 252 | 2.0 | 6.0 | 0.00 | 0.00 | 0.00 | 32 | 1012.3 |
| 20260504200804 | 80 | 258 | 3.0 | 7.0 | 0.00 | 0.00 | 0.00 | 32 | 1012.4 |
| 20260504200303 | 80 | 193 | 0.0 | 7.0 | 0.00 | 0.00 | 0.00 | 28 | 1012.5 |
| 20260504194302 | 81 | 206 | 4.0 | 14.0 | 0.00 | 0.00 | 0.00 | 30 | 1012.8 |
| 20260504193803 | 81 | 167 | 2.0 | 13.0 | 0.00 | 0.00 | 0.00 | 29 | 1012.9 |
| 20260504193302 | 81 | 272 | 3.0 | 11.0 | 0.00 | 0.00 | 0.00 | 29 | 1012.9 |
| 20260504192803 | 81 | 204 | 7.0 | 11.0 | 0.00 | 0.00 | 0.00 | 29 | 1012.7 |
| 20260504192304 | 81 | 221 | 4.0 | 12.0 | 0.00 | 0.00 | 0.00 | 30 | 1012.6 |
| 20260504191802 | 80 | 233 | 4.0 | 12.0 | 0.00 | 0.00 | 0.00 | 30 | 1012.6 |
| 20260504191302 | 80 | 263 | 7.0 | 12.0 | 0.00 | 0.00 | 0.00 | 30 | 1012.4 |
| 20260504190801 | 80 | 183 | 3.0 | 12.0 | 0.00 | 0.00 | 0.00 | 30 | 1012.3 |
| 20260504190302 | 81 | 245 | 2.0 | 8.0 | 0.00 | 0.00 | 0.00 | 30 | 1012.5 |
| 20260504185801 | 81 | 205 | 4.0 | 10.0 | 0.00 | 0.00 | 0.00 | 30 | 1012.4 |
| 20260504185301 | 80 | 257 | 3.0 | 10.0 | 0.00 | 0.00 | 0.00 | 30 | 1012.5 |
| 20260504184301 | 80 | 255 | 3.0 | 10.0 | 0.00 | 0.00 | 0.00 | 30 | 1012.8 |
| 20260504183801 | 80 | 227 | 6.0 | 9.0 | 0.00 | 0.00 | 0.00 | 30 | 1012.7 |
| 20260504183300 | 79 | 239 | 4.0 | 9.0 | 0.00 | 0.00 | 0.00 | 29 | 1012.7 |
| 20260504182800 | 79 | 223 | 3.0 | 12.0 | 0.00 | 0.00 | 0.00 | 30 | 1012.5 |
| 20260504182300 | 79 | 193 | 3.0 | 12.0 | 0.00 | 0.00 | 0.00 | 31 | 1012.6 |
| 20260504181800 | 79 | 165 | 4.0 | 11.0 | 0.00 | 0.00 | 0.00 | 30 | 1012.7 |
| 20260504180800 | 79 | 149 | 4.0 | 10.0 | 0.00 | 0.00 | 0.00 | 31 | 1012.6 |
| 20260504180259 | 79 | 165 | 2.0 | 10.0 | 0.00 | 0.00 | 0.00 | 30 | 1012.7 |
| 20260504175800 | 79 | 226 | 2.0 | 11.0 | 0.00 | 0.00 | 0.00 | 30 | 1012.7 |
| 20260504175259 | 79 | 224 | 4.0 | 12.0 | 0.00 | 0.00 | 0.00 | 30 | 1012.7 |
| 20260504174759 | 79 | 152 | 6.0 | 12.0 | 0.00 | 0.00 | 0.00 | 30 | 1013.0 |
| 20260504174259 | 79 | 182 | 3.0 | 9.0 | 0.00 | 0.00 | 0.00 | 30 | 1012.9 |
| 20260504173759 | 79 | 160 | 1.0 | 9.0 | 0.00 | 0.00 | 0.00 | 31 | 1012.9 |
| 20260504173259 | 79 | 166 | 3.0 | 9.0 | 0.00 | 0.00 | 0.00 | 31 | 1013.1 |
| 20260504172258 | 79 | 232 | 4.0 | 11.0 | 0.00 | 0.00 | 0.00 | 30 | 1013.4 |
| 20260504171758 | 79 | 233 | 2.0 | 10.0 | 0.00 | 0.00 | 0.00 | 30 | 1013.4 |
| 20260504171258 | 79 | 162 | 4.0 | 10.0 | 0.00 | 0.00 | 0.00 | 30 | 1013.4 |
| 20260504170758 | 79 | 196 | 1.0 | 13.0 | 0.00 | 0.00 | 0.00 | 31 | 1013.4 |
| 20260504160256 | 77 | 223 | 2.0 | 8.0 | 0.00 | 0.00 | 0.00 | 36 | 1013.1 |
| 20260504150755 | 74 | 125 | 3.0 | 7.0 | 0.00 | 0.00 | 0.00 | 40 | 1012.7 |
| 20260504150255 | 74 | 148 | 4.0 | 7.0 | 0.00 | 0.00 | 0.00 | 40 | 1012.6 |
| 20260504140753 | 72 | 141 | 3.0 | 4.0 | 0.00 | 0.00 | 0.00 | 42 | 1012.5 |
| 20260504130752 | 70 | 97 | 1.0 | 2.0 | 0.00 | 0.00 | 0.00 | 44 | 1011.9 |
| 20260504130251 | 70 | 114 | 1.0 | 4.0 | 0.00 | 0.00 | 0.00 | 44 | 1011.9 |
| 20260504110247 | 71 | 107 | 1.0 | 4.0 | 0.00 | 0.00 | 0.00 | 43 | 1011.8 |
| 20260504100246 | 71 | 219 | 0.0 | 1.0 | 0.00 | 0.00 | 0.00 | 43 | 1012.3 |
| 20260504081312 | 73 | 27 | 0.0 | 1.0 | 0.00 | 0.00 | 0.00 | 38 | 1011.4 |
| 20260504080812 | 72 | 27 | 0.0 | 1.0 | 0.00 | 0.00 | 0.00 | 38 | 1011.6 |
| 20260504080312 | 73 | 138 | 0.0 | 1.0 | 0.00 | 0.00 | 0.00 | 38 | 1011.6 |
| 20260504070311 | 74 | 252 | 0.0 | 1.0 | 0.00 | 0.00 | 0.00 | 34 | 1012.0 |
| 20260504050307 | 77 | 171 | 0.0 | 2.0 | 0.00 | 0.00 | 0.00 | 26 | 1011.7 |
| 20260504045807 | 78 | 212 | 2.0 | 3.0 | 0.00 | 0.00 | 0.00 | 25 | 1011.7 |
| 20260504045307 | 78 | 204 | 2.0 | 4.0 | 0.00 | 0.00 | 0.00 | 25 | 1011.7 |
| 20260504044807 | 78 | 219 | 0.0 | 5.0 | 0.00 | 0.00 | 0.00 | 25 | 1011.5 |
| 20260504044306 | 79 | 231 | 0.0 | 7.0 | 0.00 | 0.00 | 0.00 | 25 | 1011.6 |
| 20260504043806 | 79 | 274 | 1.0 | 7.0 | 0.00 | 0.00 | 0.00 | 24 | 1011.5 |
| 20260504043306 | 79 | 279 | 1.0 | 5.0 | 0.00 | 0.00 | 0.00 | 24 | 1011.2 |
| 20260504042806 | 79 | 247 | 4.0 | 6.0 | 0.00 | 0.00 | 0.00 | 24 | 1011.2 |
| 20260504042306 | 80 | 236 | 3.0 | 6.0 | 0.00 | 0.00 | 0.00 | 24 | 1011.4 |
| 20260504041806 | 80 | 229 | 2.0 | 6.0 | 0.00 | 0.00 | 0.00 | 23 | 1011.1 |
| 20260504041305 | 80 | 319 | 3.0 | 6.0 | 0.00 | 0.00 | 0.00 | 23 | 1011.1 |
| 20260504040806 | 81 | 234 | 3.0 | 8.0 | 0.00 | 0.00 | 0.00 | 22 | 1011.1 |
| 20260504040305 | 81 | 182 | 4.0 | 8.0 | 0.00 | 0.00 | 0.00 | 22 | 1010.9 |
| 20260504035805 | 81 | 148 | 3.0 | 11.0 | 0.00 | 0.00 | 0.00 | 21 | 1010.7 |
| 20260504035305 | 81 | 161 | 4.0 | 11.0 | 0.00 | 0.00 | 0.00 | 21 | 1010.4 |
| 20260504034305 | 82 | 178 | 3.0 | 13.0 | 0.00 | 0.00 | 0.00 | 20 | 1010.2 |
| 20260504033304 | 82 | 204 | 3.0 | 9.0 | 0.00 | 0.00 | 0.00 | 20 | 1010.1 |
| 20260504032804 | 82 | 131 | 6.0 | 8.0 | 0.00 | 0.00 | 0.00 | 20 | 1009.9 |